Location: Unspecified
(44.0704°N, 88.6889°W)
Time: 16:29:55
(UTC+01:00)

CZ-3 Stage 3 - Visible Passes

Search period start: 12 November 2019 00:00
Search period end: 22 November 2019 00:00
Orbit: 410 x 34780 km, 30.5° (Epoch: 11 November)

Date Brightness Start Highest point End Pass type
(mag) Time Alt. Az. Time Alt. Az. Time Alt. Az.
12 Nov 7.2 09:42:42 10° SSW 11:12:28 23° S 11:24:34 10° SE visible
13 Nov 8.4 06:40:27 10° SSE 06:50:43 10° SSE 06:59:24 10° SE visible
15 Nov 7.2 09:17:34 10° SSW 11:02:12 24° S 11:14:28 10° ESE visible
16 Nov 8.3 06:09:01 10° SSE 06:41:36 11° SSE 07:02:08 10° SE visible
18 Nov 7.1 08:48:00 10° SSW 10:51:54 25° S 11:04:20 10° ESE visible
19 Nov 8.3 05:44:56 10° SSE 06:32:20 12° SE 06:57:51 10° SE visible
21 Nov 7.1 08:11:45 10° SSW 10:41:36 26° S 10:54:11 10° ESE visible
